Location: Home
(40.5300°N, 105.0300°W)
Time: 10:57:05
(UTC-07:00)

STARLINK-2712 - Pass Details

Date: 26 October 2021
Orbit: 546 x 548 km, 53.1° (Epoch: 01 December)

Event Time Altitude Azimuth Distance (km) Brightness Sun altitude
Exits shadow 06:14:49 15° 236° (SW) 1,499 5.4 -13.7°
Maximum altitude 06:18:07 78° 321° (NW) 562 3.5 -13.0°
Drops below altitude 10° 06:22:16 10° 49° (NE) 1,816 6.9 -12.3°
Sets 06:24:30 0° 51° (NE) 2,713 7.9 -11.8°
